Station Code,Date Time,Water Depth1+10.000 m.,Water Level1 (m.MSL),Water Level2(m.MSL),15 minute Rainfall (mm.),Send Code (0=Reset:1=Auto Send:2=manual)

TX362,2018-07-18  16:15:00,021.848,11.848,010.000,0000.00,1
TX362,2018-07-18  16:30:00,021.848,11.848,010.000,0000.00,1
TX362,2018-07-18  16:45:00,021.845,11.845,010.000,0000.00,1
TX362,2018-07-18  17:00:00,021.845,11.845,010.000,0000.00,1
TX362,2018-07-18  17:15:00,021.845,11.845,010.000,0000.00,1
TX362,2018-07-18  17:30:00,021.845,11.845,010.000,0000.00,1
TX362,2018-07-18  17:45:00,021.845,11.845,010.000,0000.00,1
TX362,2018-07-18  18:00:00,021.842,11.842,010.000,0000.00,1
TX362,2018-07-18  18:15:00,021.845,11.845,010.000,0000.00,1
TX362,2018-07-18  18:30:00,021.845,11.845,010.000,0000.00,1
TX362,2018-07-18  18:45:00,021.842,11.842,010.000,0000.00,1
TX362,2018-07-18  19:00:00,021.842,11.842,010.000,0000.00,1
TX362,2018-07-18  19:15:00,021.842,11.842,010.000,0000.00,1
TX362,2018-07-18  19:30:00,021.842,11.842,010.000,0000.00,1
TX362,2018-07-18  19:45:00,021.842,11.842,010.000,0000.00,1
TX362,2018-07-18  20:00:00,021.842,11.842,010.000,0000.00,1
TX362,2018-07-18  20:15:00,021.842,11.842,010.000,0000.00,1
TX362,2018-07-18  20:30:00,021.842,11.842,010.000,0000.00,1
TX362,2018-07-18  20:45:00,021.842,11.842,010.000,0000.00,1
TX362,2018-07-18  21:00:00,021.840,11.84,010.000,0000.00,1
TX362,2018-07-18  21:15:00,021.840,11.84,010.000,0000.00,1
TX362,2018-07-18  21:30:00,021.840,11.84,010.000,0000.00,1
TX362,2018-07-18  21:45:00,021.840,11.84,010.000,0000.00,1
TX362,2018-07-18  22:01:20,021.840,11.84,010.000,0000.00,0
TX362,2018-07-18  22:15:00,021.840,11.84,010.000,0000.00,1
TX362,2018-07-18  22:30:00,021.840,11.84,010.000,0000.00,1
TX362,2018-07-18  22:45:00,021.837,11.837,010.000,0000.00,1
TX362,2018-07-18  23:00:00,021.837,11.837,010.000,0000.00,1
TX362,2018-07-18  23:15:00,021.837,11.837,010.000,0000.00,1
TX362,2018-07-18  23:30:00,021.837,11.837,010.000,0000.00,1
TX362,2018-07-18  23:45:00,021.837,11.837,010.000,0000.00,1
TX362,2018-07-19  00:00:00,021.837,11.837,010.000,0000.00,1
TX362,2018-07-19  00:15:00,021.834,11.834,010.000,0000.00,1
TX362,2018-07-19  00:30:00,021.834,11.834,010.000,0000.00,1
TX362,2018-07-19  00:45:00,021.834,11.834,010.000,0000.00,1
TX362,2018-07-19  01:00:00,021.834,11.834,010.000,0000.00,1
TX362,2018-07-19  01:15:00,021.834,11.834,010.000,0000.00,1
TX362,2018-07-19  01:30:00,021.834,11.834,010.000,0000.00,1
TX362,2018-07-19  01:45:00,021.834,11.834,010.000,0000.00,1
TX362,2018-07-19  02:00:00,021.834,11.834,010.000,0000.00,1
TX362,2018-07-19  02:15:00,021.834,11.834,010.000,0000.00,1
TX362,2018-07-19  02:30:00,021.834,11.834,010.000,0000.00,1
TX362,2018-07-19  02:45:00,021.831,11.831,010.000,0000.00,1
TX362,2018-07-19  03:00:00,021.831,11.831,010.000,0000.00,1
TX362,2018-07-19  03:15:00,021.831,11.831,010.000,0000.00,1
TX362,2018-07-19  03:30:00,021.831,11.831,010.000,0000.00,1
TX362,2018-07-19  03:45:00,021.831,11.831,010.000,0000.00,1
TX362,2018-07-19  04:00:00,021.829,11.829,010.000,0000.00,1
TX362,2018-07-19  04:15:00,021.829,11.829,010.000,0000.00,1
TX362,2018-07-19  04:30:00,021.829,11.829,010.000,0000.00,1
TX362,2018-07-19  04:45:00,021.829,11.829,010.000,0000.00,1
TX362,2018-07-19  05:00:00,021.829,11.829,010.000,0000.00,1
TX362,2018-07-19  05:15:00,021.829,11.829,010.000,0000.00,1
TX362,2018-07-19  05:30:00,021.829,11.829,010.000,0000.00,1
TX362,2018-07-19  05:45:00,021.829,11.829,010.000,0000.00,1
TX362,2018-07-19  06:00:00,021.826,11.826,010.000,0000.00,1
TX362,2018-07-19  06:15:00,021.826,11.826,010.000,0000.00,1
TX362,2018-07-19  06:30:00,021.826,11.826,010.000,0000.00,1
TX362,2018-07-19  06:45:00,021.826,11.826,010.000,0000.00,1
TX362,2018-07-19  07:00:00,021.823,11.823,010.000,0000.00,1
TX362,2018-07-19  07:15:00,021.823,11.823,010.000,0000.00,1
TX362,2018-07-19  07:30:00,021.823,11.823,010.000,0000.00,1
TX362,2018-07-19  07:45:00,021.823,11.823,010.000,0000.00,1
TX362,2018-07-19  08:00:00,021.823,11.823,010.000,0000.00,1
TX362,2018-07-19  08:15:00,021.823,11.823,010.000,0000.00,1
TX362,2018-07-19  08:30:00,021.823,11.823,010.000,0000.00,1
TX362,2018-07-19  08:45:00,021.823,11.823,010.000,0000.00,1
TX362,2018-07-19  09:00:00,021.823,11.823,010.000,0000.00,1
TX362,2018-07-19  09:15:00,021.823,11.823,010.000,0000.00,1
TX362,2018-07-19  09:30:00,021.823,11.823,010.000,0000.00,1
TX362,2018-07-19  09:45:00,021.820,11.82,010.000,0000.00,1
TX362,2018-07-19  10:00:00,021.820,11.82,010.000,0000.00,1
TX362,2018-07-19  10:15:00,021.820,11.82,010.000,0000.00,1
TX362,2018-07-19  10:30:00,021.820,11.82,010.000,0000.00,1
TX362,2018-07-19  10:45:00,021.820,11.82,010.000,0000.00,1
TX362,2018-07-19  10:58:30,021.820,11.82,010.000,0000.00,0
TX362,2018-07-19  11:15:00,021.818,11.818,010.000,0000.00,1
TX362,2018-07-19  11:30:00,021.820,11.82,010.000,0000.00,1
TX362,2018-07-19  11:45:00,021.818,11.818,010.000,0000.00,1
TX362,2018-07-19  12:00:00,021.818,11.818,010.000,0000.00,1
TX362,2018-07-19  12:15:00,021.818,11.818,010.000,0000.00,1
TX362,2018-07-19  12:30:00,021.818,11.818,010.000,0000.00,1
TX362,2018-07-19  12:45:00,021.818,11.818,010.000,0000.00,1
TX362,2018-07-19  13:00:00,021.818,11.818,010.000,0000.00,1
TX362,2018-07-19  13:15:00,021.818,11.818,010.000,0000.00,1
TX362,2018-07-19  13:30:00,021.818,11.818,010.000,0000.00,1
TX362,2018-07-19  13:45:00,021.818,11.818,010.000,0000.00,1
TX362,2018-07-19  14:00:00,021.815,11.815,010.000,0000.00,1
TX362,2018-07-19  14:15:00,021.815,11.815,010.000,0000.00,1
TX362,2018-07-19  14:30:00,021.815,11.815,010.000,0000.00,1
TX362,2018-07-19  14:45:00,021.815,11.815,010.000,0000.00,1
TX362,2018-07-19  15:00:00,021.818,11.818,010.000,0000.00,1
TX362,2018-07-19  15:15:00,021.815,11.815,010.000,0000.00,1
TX362,2018-07-19  15:30:00,021.815,11.815,010.000,0000.00,1
TX362,2018-07-19  15:45:00,021.818,11.818,010.000,0000.00,1
TX362,2018-07-19  16:00:00,021.815,11.815,010.000,0000.00,1
TX362,2018-07-19  16:15:00,021.815,11.815,010.000,0000.00,1
TX362,2018-07-19  16:30:00,021.815,11.815,010.000,0000.00,1
TX362,2018-07-19  16:45:00,021.818,11.818,010.000,0000.00,1
TX362,2018-07-19  17:00:00,021.815,11.815,010.000,0000.00,1
TX362,2018-07-19  17:15:00,021.815,11.815,010.000,0000.00,1
TX362,2018-07-19  17:30:00,021.815,11.815,010.000,0000.00,1
TX362,2018-07-19  17:45:00,021.815,11.815,010.000,0000.00,1
TX362,2018-07-19  18:00:00,021.815,11.815,010.000,0000.00,1
TX362,2018-07-19  18:15:00,021.815,11.815,010.000,0000.00,1
TX362,2018-07-19  18:30:00,021.815,11.815,010.000,0000.00,1
TX362,2018-07-19  18:45:00,021.815,11.815,010.000,0000.00,1
TX362,2018-07-19  19:00:00,021.815,11.815,010.000,0000.00,1
TX362,2018-07-19  19:15:00,021.815,11.815,010.000,0000.00,1
TX362,2018-07-19  19:30:00,021.815,11.815,010.000,0000.00,1
TX362,2018-07-19  19:45:00,021.815,11.815,010.000,0000.00,1
TX362,2018-07-19  20:00:00,021.815,11.815,010.000,0000.00,1
TX362,2018-07-19  20:15:00,021.815,11.815,010.000,0000.00,1
TX362,2018-07-19  20:30:00,021.815,11.815,010.000,0000.00,1
TX362,2018-07-19  20:45:00,021.815,11.815,010.000,0000.00,1
TX362,2018-07-19  21:00:00,021.815,11.815,010.000,0000.00,1
TX362,2018-07-19  21:15:00,021.815,11.815,010.000,0000.00,1
TX362,2018-07-19  21:30:00,021.815,11.815,010.000,0000.00,1
TX362,2018-07-19  21:45:00,021.815,11.815,010.000,0000.00,1
TX362,2018-07-19  22:00:00,021.815,11.815,010.000,0000.00,1
TX362,2018-07-19  22:15:00,021.815,11.815,010.000,0000.00,1
TX362,2018-07-19  22:30:00,021.815,11.815,010.000,0000.00,1
TX362,2018-07-19  22:45:00,021.812,11.812,010.000,0000.00,1
TX362,2018-07-19  23:00:00,021.812,11.812,010.000,0000.00,1
TX362,2018-07-19  23:15:00,021.812,11.812,010.000,0000.00,1
TX362,2018-07-19  23:30:00,021.812,11.812,010.000,0000.00,1
TX362,2018-07-19  23:45:00,021.812,11.812,010.000,0000.00,1
TX362,2018-07-19  23:57:54,021.809,11.809,010.000,0000.00,0
TX362,2018-07-20  00:15:00,021.809,11.809,010.000,0000.00,1
TX362,2018-07-20  00:30:00,021.809,11.809,010.000,0000.00,1
TX362,2018-07-20  00:45:00,021.809,11.809,010.000,0000.00,1
TX362,2018-07-20  01:00:00,021.809,11.809,010.000,0000.00,1
TX362,2018-07-20  01:15:00,021.809,11.809,010.000,0000.00,1
TX362,2018-07-20  01:30:00,021.809,11.809,010.000,0000.00,1
TX362,2018-07-20  01:45:00,021.809,11.809,010.000,0000.00,1
TX362,2018-07-20  02:00:00,021.809,11.809,010.000,0000.00,1
TX362,2018-07-20  02:15:00,021.807,11.807,010.000,0000.00,1
TX362,2018-07-20  02:30:00,021.807,11.807,010.000,0000.00,1
TX362,2018-07-20  02:45:00,021.807,11.807,010.000,0000.00,1
TX362,2018-07-20  03:00:00,021.807,11.807,010.000,0000.00,1
TX362,2018-07-20  03:15:00,021.807,11.807,010.000,0000.00,1
TX362,2018-07-20  03:30:00,021.807,11.807,010.000,0000.00,1
TX362,2018-07-20  03:45:00,021.807,11.807,010.000,0000.00,1
TX362,2018-07-20  04:00:00,021.807,11.807,010.000,0000.00,1
TX362,2018-07-20  04:15:00,021.807,11.807,010.000,0000.00,1
TX362,2018-07-20  04:30:00,021.807,11.807,010.000,0000.00,1
TX362,2018-07-20  04:45:00,021.807,11.807,010.000,0000.00,1
TX362,2018-07-20  05:00:00,021.804,11.804,010.000,0000.00,1
TX362,2018-07-20  05:15:00,021.804,11.804,010.000,0000.00,1
TX362,2018-07-20  05:30:00,021.804,11.804,010.000,0000.00,1
TX362,2018-07-20  05:45:00,021.804,11.804,010.000,0000.00,1
TX362,2018-07-20  06:00:00,021.804,11.804,010.000,0000.00,1
TX362,2018-07-20  06:15:00,021.804,11.804,010.000,0000.00,1
TX362,2018-07-20  06:30:00,021.804,11.804,010.000,0000.00,1
TX362,2018-07-20  06:45:00,021.804,11.804,010.000,0000.00,1
TX362,2018-07-20  07:00:00,021.804,11.804,010.000,0000.00,1
TX362,2018-07-20  07:15:00,021.804,11.804,010.000,0000.00,1
TX362,2018-07-20  07:30:00,021.804,11.804,010.000,0000.00,1
TX362,2018-07-20  07:45:00,021.804,11.804,010.000,0000.00,1
TX362,2018-07-20  08:00:00,021.804,11.804,010.000,0000.00,1
TX362,2018-07-20  08:15:00,021.801,11.801,010.000,0000.00,1
TX362,2018-07-20  08:30:00,021.801,11.801,010.000,0000.00,1
TX362,2018-07-20  08:45:00,021.801,11.801,010.000,0000.00,1
TX362,2018-07-20  09:00:00,021.801,11.801,010.000,0000.00,1
TX362,2018-07-20  09:15:00,021.801,11.801,010.000,0000.00,1
TX362,2018-07-20  09:30:00,021.801,11.801,010.000,0000.00,1
TX362,2018-07-20  09:45:00,021.801,11.801,010.000,0000.00,1
TX362,2018-07-20  10:00:00,021.801,11.801,010.000,0000.00,1
TX362,2018-07-20  10:15:00,021.801,11.801,010.000,0000.00,1
TX362,2018-07-20  10:30:00,021.801,11.801,010.000,0000.00,1
TX362,2018-07-20  10:45:00,021.801,11.801,010.000,0000.00,1
TX362,2018-07-20  11:00:00,021.801,11.801,010.000,0000.00,1
TX362,2018-07-20  11:15:00,021.801,11.801,010.000,0000.00,1
TX362,2018-07-20  11:30:00,021.801,11.801,010.000,0000.00,1
TX362,2018-07-20  11:45:00,021.801,11.801,010.000,0000.00,1
TX362,2018-07-20  12:00:00,021.801,11.801,010.000,0000.00,1
TX362,2018-07-20  12:15:00,021.798,11.798,010.000,0000.00,1
TX362,2018-07-20  12:30:00,021.798,11.798,010.000,0000.00,1
TX362,2018-07-20  12:45:00,021.798,11.798,010.000,0000.00,1
TX362,2018-07-20  12:55:09,021.798,11.798,010.000,0000.00,0
TX362,2018-07-20  13:00:00,021.798,11.798,010.000,0000.00,1
TX362,2018-07-20  13:15:00,021.798,11.798,010.000,0000.00,1
TX362,2018-07-20  13:30:00,021.798,11.798,010.000,0000.00,1
TX362,2018-07-20  13:45:00,021.798,11.798,010.000,0000.00,1
TX362,2018-07-20  14:00:00,021.798,11.798,010.000,0000.00,1
TX362,2018-07-20  14:15:00,021.798,11.798,010.000,0000.00,1
TX362,2018-07-20  14:30:00,021.798,11.798,010.000,0000.00,1
TX362,2018-07-20  14:45:00,021.798,11.798,010.000,0000.00,1
TX362,2018-07-20  15:00:00,021.798,11.798,010.000,0000.00,1
TX362,2018-07-20  17:44:49,021.807,11.807,010.000,0000.00,0
TX362,2018-07-20  18:00:00,021.804,11.804,010.000,0000.00,1
TX362,2018-07-20  18:15:00,021.804,11.804,010.000,0000.00,1
TX362,2018-07-20  18:30:00,021.804,11.804,010.000,0000.00,1
TX362,2018-07-20  18:45:00,021.804,11.804,010.000,0000.00,1
TX362,2018-07-20  19:00:00,021.804,11.804,010.000,0000.00,1
TX362,2018-07-20  19:15:00,021.804,11.804,010.000,0000.00,1
TX362,2018-07-20  19:30:00,021.804,11.804,010.000,0000.00,1
TX362,2018-07-20  19:45:00,021.804,11.804,010.000,0000.00,1
TX362,2018-07-20  20:00:00,021.804,11.804,010.000,0000.00,1
TX362,2018-07-20  20:15:00,021.804,11.804,010.000,0000.00,1
TX362,2018-07-20  20:30:00,021.804,11.804,010.000,0000.00,1
TX362,2018-07-20  20:45:00,021.801,11.801,010.000,0000.00,1
TX362,2018-07-20  21:00:00,021.801,11.801,010.000,0000.00,1
TX362,2018-07-20  21:15:00,021.801,11.801,010.000,0000.00,1
TX362,2018-07-20  21:30:00,021.801,11.801,010.000,0000.00,1
TX362,2018-07-20  21:45:00,021.801,11.801,010.000,0000.00,1
TX362,2018-07-20  22:00:00,021.801,11.801,010.000,0000.00,1
TX362,2018-07-20  22:15:00,021.798,11.798,010.000,0000.00,1
TX362,2018-07-20  22:30:00,021.798,11.798,010.000,0000.00,1
TX362,2018-07-20  22:45:00,021.798,11.798,010.000,0000.00,1
TX362,2018-07-20  23:00:00,021.798,11.798,010.000,0000.00,1
TX362,2018-07-20  23:15:00,021.798,11.798,010.000,0000.00,1
TX362,2018-07-20  23:30:00,021.798,11.798,010.000,0000.00,1
TX362,2018-07-20  23:45:00,021.798,11.798,010.000,0000.00,1
TX362,2018-07-21  00:00:00,021.798,11.798,010.000,0000.00,1
TX362,2018-07-21  00:15:00,021.798,11.798,010.000,0000.00,1
TX362,2018-07-21  00:30:00,021.798,11.798,010.000,0000.00,1
TX362,2018-07-21  00:45:00,021.798,11.798,010.000,0000.00,1
TX362,2018-07-21  01:00:00,021.798,11.798,010.000,0000.00,1
TX362,2018-07-21  01:15:00,021.798,11.798,010.000,0000.00,1
TX362,2018-07-21  01:30:00,021.798,11.798,010.000,0000.00,1
TX362,2018-07-21  01:45:00,021.798,11.798,010.000,0000.00,1
TX362,2018-07-21  02:00:00,021.798,11.798,010.000,0000.00,1
TX362,2018-07-21  02:15:00,021.798,11.798,010.000,0000.00,1
TX362,2018-07-21  02:30:00,021.798,11.798,010.000,0000.00,1
TX362,2018-07-21  02:45:00,021.798,11.798,010.000,0000.00,1
TX362,2018-07-21  03:00:00,021.795,11.795,010.000,0000.00,1
TX362,2018-07-21  03:15:00,021.798,11.798,010.000,0000.00,1
TX362,2018-07-21  03:30:00,021.798,11.798,010.000,0000.00,1
TX362,2018-07-21  03:45:00,021.798,11.798,010.000,0000.00,1
TX362,2018-07-21  04:00:00,021.798,11.798,010.000,0000.00,1
TX362,2018-07-21  04:15:00,021.798,11.798,010.000,0000.00,1
TX362,2018-07-21  04:30:00,021.798,11.798,010.000,0000.00,1
TX362,2018-07-21  04:45:00,021.798,11.798,010.000,0000.00,1
TX362,2018-07-21  05:00:00,021.798,11.798,010.000,0000.00,1
TX362,2018-07-21  05:15:00,021.798,11.798,010.000,0000.00,1
TX362,2018-07-21  05:30:00,021.798,11.798,010.000,0000.00,1
TX362,2018-07-21  05:45:00,021.801,11.801,010.000,0000.00,1
TX362,2018-07-21  06:00:00,021.801,11.801,010.000,0000.00,1
TX362,2018-07-21  06:15:00,021.801,11.801,010.000,0000.00,1
TX362,2018-07-21  06:30:00,021.801,11.801,010.000,0000.00,1
TX362,2018-07-21  06:40:45,021.804,11.804,010.000,0000.00,0
TX362,2018-07-21  06:45:00,021.804,11.804,010.000,0000.00,1
TX362,2018-07-21  07:00:00,021.804,11.804,010.000,0000.00,1
TX362,2018-07-21  07:15:00,021.804,11.804,010.000,0000.00,1
TX362,2018-07-21  07:30:00,021.804,11.804,010.000,0000.00,1
TX362,2018-07-21  07:45:00,021.804,11.804,010.000,0000.00,1
TX362,2018-07-21  08:00:00,021.804,11.804,010.000,0000.00,1
TX362,2018-07-21  08:15:00,021.804,11.804,010.000,0000.00,1
TX362,2018-07-21  08:30:00,021.804,11.804,010.000,0000.00,1
TX362,2018-07-21  08:45:00,021.804,11.804,010.000,0000.00,1
TX362,2018-07-21  09:00:00,021.807,11.807,010.000,0000.00,1
TX362,2018-07-21  09:15:00,021.807,11.807,010.000,0000.00,1
TX362,2018-07-21  09:30:00,021.807,11.807,010.000,0000.00,1
TX362,2018-07-21  09:45:00,021.807,11.807,010.000,0000.00,1
TX362,2018-07-21  10:00:00,021.807,11.807,010.000,0000.00,1
TX362,2018-07-21  10:15:00,021.807,11.807,010.000,0000.00,1
TX362,2018-07-21  10:30:00,021.807,11.807,010.000,0000.00,1
TX362,2018-07-21  10:45:00,021.809,11.809,010.000,0000.00,1
TX362,2018-07-21  11:00:00,021.809,11.809,010.000,0000.00,1
TX362,2018-07-21  11:15:00,021.809,11.809,010.000,0000.00,1
TX362,2018-07-21  11:30:00,021.809,11.809,010.000,0000.00,1
TX362,2018-07-21  11:45:00,021.809,11.809,010.000,0000.00,1
TX362,2018-07-21  12:00:00,021.809,11.809,010.000,0000.00,1
TX362,2018-07-21  12:15:00,021.812,11.812,010.000,0000.00,1
TX362,2018-07-21  12:30:00,021.812,11.812,010.000,0000.00,1
TX362,2018-07-21  12:45:00,021.812,11.812,010.000,0000.00,1
TX362,2018-07-21  13:00:00,021.815,11.815,010.000,0000.00,1
TX362,2018-07-21  13:15:00,021.812,11.812,010.000,0000.00,1
TX362,2018-07-21  13:30:00,021.815,11.815,010.000,0000.00,1
TX362,2018-07-21  13:45:00,021.815,11.815,010.000,0000.00,1
TX362,2018-07-21  14:00:00,021.815,11.815,010.000,0000.00,1
TX362,2018-07-21  14:15:00,021.815,11.815,010.000,0000.00,1
TX362,2018-07-21  14:30:00,021.815,11.815,010.000,0000.00,1
TX362,2018-07-21  14:45:00,021.818,11.818,010.000,0000.00,1
TX362,2018-07-21  15:00:00,021.818,11.818,010.000,0000.00,1
TX362,2018-07-21  15:15:00,021.818,11.818,010.000,0000.00,1
TX362,2018-07-21  15:30:00,021.818,11.818,010.000,0000.00,1
TX362,2018-07-21  15:45:00,021.818,11.818,010.000,0000.00,1
TX362,2018-07-21  16:00:00,021.820,11.82,010.000,0000.00,1
TX362,2018-07-21  17:57:45,021.823,11.823,010.000,0000.00,0
TX362,2018-07-21  18:15:00,021.820,11.82,010.000,0000.00,1
TX362,2018-07-21  18:30:00,021.823,11.823,010.000,0000.00,1
TX362,2018-07-21  18:45:00,021.823,11.823,010.000,0000.00,1
TX362,2018-07-21  19:00:00,021.823,11.823,010.000,0000.00,1
TX362,2018-07-21  19:15:00,021.823,11.823,010.000,0000.00,1
TX362,2018-07-21  19:30:00,021.823,11.823,010.000,0000.00,1
TX362,2018-07-21  19:45:00,021.823,11.823,010.000,0000.00,1
TX362,2018-07-21  20:00:00,021.823,11.823,010.000,0000.00,1
TX362,2018-07-21  20:15:00,021.823,11.823,010.000,0000.00,1
TX362,2018-07-21  20:30:00,021.823,11.823,010.000,0000.00,1
TX362,2018-07-21  20:45:00,021.823,11.823,010.000,0000.00,1
TX362,2018-07-21  21:00:00,021.823,11.823,010.000,0000.00,1
TX362,2018-07-21  21:15:00,021.823,11.823,010.000,0000.00,1
TX362,2018-07-21  21:30:00,021.823,11.823,010.000,0000.00,1
TX362,2018-07-21  21:45:00,021.823,11.823,010.000,0000.00,1
TX362,2018-07-21  22:00:00,021.823,11.823,010.000,0000.00,1
TX362,2018-07-21  22:15:00,021.823,11.823,010.000,0000.00,1
TX362,2018-07-21  22:30:00,021.823,11.823,010.000,0000.00,1
TX362,2018-07-21  22:45:00,021.823,11.823,010.000,0000.00,1
TX362,2018-07-21  23:00:00,021.823,11.823,010.000,0000.00,1
TX362,2018-07-21  23:15:00,021.820,11.82,010.000,0000.00,1
TX362,2018-07-21  23:30:00,021.820,11.82,010.000,0000.00,1
TX362,2018-07-21  23:45:00,021.820,11.82,010.000,0000.00,1
TX362,2018-07-22  00:00:00,021.820,11.82,010.000,0000.00,1
TX362,2018-07-22  00:15:00,021.820,11.82,010.000,0000.00,1
TX362,2018-07-22  00:30:00,021.820,11.82,010.000,0000.00,1
TX362,2018-07-22  00:45:00,021.818,11.818,010.000,0000.00,1
TX362,2018-07-22  01:00:00,021.818,11.818,010.000,0000.00,1
TX362,2018-07-22  01:15:00,021.818,11.818,010.000,0000.00,1
TX362,2018-07-22  01:30:00,021.818,11.818,010.000,0000.00,1
TX362,2018-07-22  01:45:00,021.815,11.815,010.000,0000.00,1
TX362,2018-07-22  02:00:00,021.815,11.815,010.000,0000.00,1
TX362,2018-07-22  02:15:00,021.815,11.815,010.000,0000.00,1
TX362,2018-07-22  02:30:00,021.815,11.815,010.000,0000.00,1
TX362,2018-07-22  02:45:00,021.815,11.815,010.000,0000.00,1
TX362,2018-07-22  03:00:00,021.815,11.815,010.000,0000.00,1
TX362,2018-07-22  03:15:00,021.812,11.812,010.000,0000.00,1
TX362,2018-07-22  03:30:00,021.812,11.812,010.000,0000.00,1
TX362,2018-07-22  03:45:00,021.812,11.812,010.000,0000.00,1
TX362,2018-07-22  04:00:00,021.812,11.812,010.000,0000.00,1
TX362,2018-07-22  04:15:00,021.809,11.809,010.000,0000.00,1
TX362,2018-07-22  04:30:00,021.809,11.809,010.000,0000.00,1
TX362,2018-07-22  04:45:00,021.812,11.812,010.000,0000.00,1
TX362,2018-07-22  05:00:00,021.809,11.809,010.000,0000.00,1
TX362,2018-07-22  05:15:00,021.809,11.809,010.000,0000.00,1
TX362,2018-07-22  05:30:00,021.809,11.809,010.000,0000.00,1
TX362,2018-07-22  05:45:00,021.809,11.809,010.000,0000.00,1
TX362,2018-07-22  06:00:00,021.809,11.809,010.000,0000.00,1
TX362,2018-07-22  06:15:00,021.807,11.807,010.000,0000.00,1
TX362,2018-07-22  06:30:00,021.807,11.807,010.000,0000.00,1
TX362,2018-07-22  06:45:00,021.807,11.807,010.000,0000.00,1
TX362,2018-07-22  06:55:13,021.807,11.807,010.000,0000.00,0
TX362,2018-07-22  07:00:00,021.807,11.807,010.000,0000.00,1
TX362,2018-07-22  07:15:00,021.807,11.807,010.000,0000.00,1
TX362,2018-07-22  07:30:00,021.807,11.807,010.000,0000.00,1
TX362,2018-07-22  07:45:00,021.804,11.804,010.000,0000.00,1
TX362,2018-07-22  08:00:00,021.804,11.804,010.000,0000.00,1
TX362,2018-07-22  08:15:00,021.804,11.804,010.000,0000.00,1
TX362,2018-07-22  08:30:00,021.804,11.804,010.000,0000.00,1
TX362,2018-07-22  08:45:00,021.804,11.804,010.000,0000.00,1
TX362,2018-07-22  09:00:00,021.804,11.804,010.000,0000.00,1
TX362,2018-07-22  09:15:00,021.801,11.801,010.000,0000.00,1
TX362,2018-07-22  09:30:00,021.801,11.801,010.000,0000.00,1
TX362,2018-07-22  09:45:00,021.801,11.801,010.000,0000.00,1
TX362,2018-07-22  10:00:00,021.801,11.801,010.000,0000.00,1
TX362,2018-07-22  10:15:00,021.801,11.801,010.000,0000.00,1
TX362,2018-07-22  10:30:00,021.801,11.801,010.000,0000.00,1
TX362,2018-07-22  10:45:00,021.801,11.801,010.000,0000.00,1
TX362,2018-07-22  11:00:00,021.801,11.801,010.000,0000.00,1
TX362,2018-07-22  11:15:00,021.801,11.801,010.000,0000.00,1
TX362,2018-07-22  11:30:00,021.801,11.801,010.000,0000.00,1
TX362,2018-07-22  11:45:00,021.801,11.801,010.000,0000.00,1
TX362,2018-07-22  12:00:00,021.798,11.798,010.000,0000.00,1
TX362,2018-07-22  12:15:00,021.798,11.798,010.000,0000.00,1
TX362,2018-07-22  12:30:00,021.798,11.798,010.000,0000.00,1
TX362,2018-07-22  12:45:00,021.798,11.798,010.000,0000.00,1
TX362,2018-07-22  13:00:00,021.798,11.798,010.000,0000.00,1
TX362,2018-07-22  13:15:00,021.798,11.798,010.000,0000.00,1
TX362,2018-07-22  13:30:00,021.798,11.798,010.000,0000.00,1
TX362,2018-07-22  13:45:00,021.798,11.798,010.000,0000.00,1
TX362,2018-07-22  14:00:00,021.798,11.798,010.000,0000.00,1
TX362,2018-07-22  14:15:00,021.798,11.798,010.000,0000.00,1
TX362,2018-07-22  14:30:00,021.798,11.798,010.000,0000.00,1
TX362,2018-07-22  14:45:00,021.798,11.798,010.000,0000.00,1
TX362,2018-07-22  15:00:00,021.795,11.795,010.000,0000.00,1
TX362,2018-07-22  15:15:00,021.798,11.798,010.000,0000.00,1
TX362,2018-07-22  15:30:00,021.798,11.798,010.000,0000.00,1
TX362,2018-07-22  15:45:00,021.795,11.795,010.000,0000.00,1
TX362,2018-07-22  16:00:00,021.795,11.795,010.000,0000.00,1
TX362,2018-07-22  16:15:00,021.795,11.795,010.000,0000.00,1
TX362,2018-07-22  16:30:00,021.795,11.795,010.000,0000.00,1
TX362,2018-07-22  16:45:00,021.793,11.793,010.000,0000.00,1
TX362,2018-07-22  17:00:00,021.795,11.795,010.000,0000.00,1
TX362,2018-07-22  17:15:00,021.793,11.793,010.000,0000.00,1
TX362,2018-07-22  17:30:00,021.793,11.793,010.000,0000.00,1
TX362,2018-07-22  17:45:00,021.793,11.793,010.000,0000.00,1
TX362,2018-07-22  18:00:00,021.793,11.793,010.000,0000.00,1
TX362,2018-07-22  18:15:00,021.793,11.793,010.000,0000.00,1
TX362,2018-07-22  18:30:00,021.793,11.793,010.000,0000.00,1
TX362,2018-07-22  18:45:00,021.793,11.793,010.000,0000.00,1
TX362,2018-07-22  19:00:00,021.793,11.793,010.000,0000.00,1
TX362,2018-07-22  19:15:00,021.793,11.793,010.000,0000.00,1
TX362,2018-07-22  19:30:00,021.793,11.793,010.000,0000.00,1
TX362,2018-07-22  19:45:00,021.790,11.79,010.000,0000.00,1
TX362,2018-07-22  19:53:37,021.790,11.79,010.000,0000.00,0
TX362,2018-07-22  20:00:00,021.790,11.79,010.000,0000.00,1
TX362,2018-07-22  20:15:00,021.790,11.79,010.000,0000.00,1
TX362,2018-07-22  20:30:00,021.790,11.79,010.000,0000.00,1
TX362,2018-07-22  20:45:00,021.790,11.79,010.000,0000.00,1
TX362,2018-07-22  21:00:00,021.790,11.79,010.000,0000.00,1